EZIE-B

导读

EZIE-B是美国NASA“电喷流塞曼成像探测器(EZIE)”任务的卫星之一,该任务于北京时间2025年3月15日从加利福尼亚州范登堡太空军基地发射,随后成功完成星箭部署。作为针对地球极光区电流观测的专项任务卫星,EZIE-B将与编队卫星协同,通过观测电离层电喷流的塞曼分裂效应,解析高层大气电流结构,助力空间物理研究与空间天气预测,目前已完成在轨状态验证,进入科学观测阶段。

Basic Information
目录编号:
63250
目录名称:
EZIE-B
国际标识:
2025-052AS
轨道中心:
EARTH
卫星名称:
EZIE-B
卫星全名:
EZIE-B
卫星状态:
在轨 (已飞行539 天)
发射日期:
2025-03-15 UTC
国别 :
美国 (US)
星等 :
--
Orbit Information
数据来源 国际轨道数据
星历时间: 2026-09-05T06:50:17+0800
8小时前
查看轨道信息
半长轴: 6951.995km
偏心率: 0.0002702
轨道倾角: 97.678°
近地点辐角 299.436°
升交点赤经 138.880°
平近点角 60.659°
近地点: 571.979km
远地点: 575.737km
周期: 96.144分钟
每日圈数: 14.977476
Detailed Information
使用方式:
暂无
2D Orbit Map
3D Orbit Map
Orbit Altitude Analysis Chart
Orbit Inclination Analysis Chart
Orbit Comprehensive Analysis Chart
View Comprehensive Chart
Conjunction Data List
Event ID Objects TCA Miss Dist (km) Collision Risk Probability Collision Risk Index (CRI) Action
CDM_260906-233004-914606-325021
EZIE-B (63250)
2026-09-06T
23:30:22+0000
0.280 km
中距离
3.811287E-4 高风险 0.87
CDM_260906-210604-914606-325021
EZIE-B (63250)
2026-09-06T
21:06:01+0000
0.303 km
远距离
3.363692E-4 高风险 0.86
CDM_260901-002106-325006-487224
EZIE-B (63250)
2026-09-01T
00:21:23+0000
1.224 km
极远距离
1.352531E-5 中风险 0.58
CDM_260906-182605-649106-325021
EZIE-B (63250)
2026-09-06T
18:26:25+0000
1.631 km
极远距离
4.915631E-6 低风险 0.49
CDM_260907-071606-325006-479321
EZIE-B (63250)
2026-09-07T
07:16:27+0000
2.041 km
极远距离
2.395091E-6 低风险 0.43
CDM_260901-015706-325006-487224
EZIE-B (63250)
2026-09-01T
01:57:34+0000
2.230 km
极远距离
2.223361E-6 低风险 0.42
CDM_260903-150406-325006-700322
EZIE-B (63250)
2026-09-03T
15:04:52+0000
2.701 km
极远距离
1.483608E-6 低风险 0.38
CDM_260907-000306-325006-479421
EZIE-B (63250)
2026-09-07T
00:03:31+0000
2.880 km
极远距离
1.250245E-6 低风险 0.37
CDM_260907-015705-595706-325021
EZIE-B (63250)
2026-09-07T
01:57:26+0000
2.233 km
极远距离
1.13762E-6 低风险 0.36
CDM_260907-001705-593406-325021
EZIE-B (63250)
2026-09-07T
00:17:07+0000
2.901 km
极远距离
8.983837E-7 极低风险 0.34